[[{"header":{"parameterUnit":"m.s-1","parameterCategory":1,"la1":30.2991,"la2":30.254,"lo1":-89.0895,"lo2":-89.0444,"dy":0.0017,"dx":0.0017,"nx":28,"ny":28,"refTime":"2024-10-07T09:00:00:Z","depth":0,"parameterNumber":2,"parameterNumberName":"U-component_of_WINDS"},"data":[0,0,0,0,0,0,0,0,0,0,0,0,0,0,0,0,0,0,0,0,0,0,0,0,0,0,0,0,0,0,0,0,0,0,0,0,0,0,0,0,0,0,0,0,0,0,0,0,0,0,0,0,0,0,0,0,0,0,-3.2764,-3.2764,0,-3.2803,-3.2803,-3.2804,-3.2685,-3.2681,-3.2677,-3.2674,-3.272,-3.2725,-3.2729,0,0,0,0,0,0,0,0,0,0,0,0,0,-3.2592,-3.2595,-3.2764,-3.2764,-3.2765,-3.2803,-3.2803,-3.2804,-3.2685,-3.2681,-3.2676,-3.2672,-3.2718,-3.2724,-3.273,0,0,0,0,0,0,0,0,0,0,0,0,0,-3.2652,-3.2597,-3.2764,-3.271,-3.2705,-3.2803,-3.2803,-3.2804,-3.2686,-3.2681,-3.2675,-3.267,-3.2717,-3.2723,-3.273,-3.2883,0,0,-3.2752,-3.2755,0,0,0,0,0,0,0,0,-3.2649,-3.2659,-3.2717,-3.2714,-3.2709,-3.2733,-3.2759,-3.2831,-3.2688,-3.2694,-3.2674,-3.2667,-3.2729,-3.2735,-3.2754,-3.2885,-3.2887,-3.2752,-3.2756,-3.2759,-3.2761,0,0,0,0,0,0,0,-3.2645,-3.2656,-3.2779,-3.2718,-3.2713,-3.2686,-3.2688,-3.2772,-3.2742,-3.2693,-3.2684,-3.269,-3.2726,-3.2748,-3.2755,-3.2888,-3.2752,-3.2758,-3.2762,-3.2765,-3.3148,-3.3153,0,0,0,0,0,0,-3.2647,-3.2654,-3.2778,-3.278,-3.2665,-3.2693,-3.2696,-3.2731,-3.2741,-3.2737,-3.2695,-3.2684,-3.2739,-3.2747,-3.2756,-3.2937,-3.2759,-3.2766,-3.277,-3.3142,-3.3149,-3.3155,0,0,0,0,0,0,-3.2644,-3.2659,-3.2776,-3.2715,-3.2727,-3.2702,-3.2742,-3.2735,-3.2756,-3.2742,-3.2737,-3.2723,-3.2735,-3.2746,-3.2852,-3.2937,-3.2769,-3.2775,-3.3135,-3.3144,-3.3152,-3.33,0,0,0,0,0,0,-3.2639,-3.2659,-3.2715,-3.2717,-3.2731,-3.2871,-3.2747,-3.2739,-3.2768,-3.2755,-3.2767,-3.2764,-3.2731,-3.2842,-3.2859,-3.2943,-3.2781,-3.3127,-3.3139,-3.3149,-3.3287,-3.3313,-3.3334,0,0,0,0,0,-3.2634,-3.2756,-3.2719,-3.2734,-3.2801,-3.2876,-3.2885,-3.2843,-3.2775,-3.2833,-3.2824,-3.2763,-3.2924,-3.2854,-3.2872,-3.296,-3.3122,-3.3135,-3.3149,-3.3277,-3.3308,-3.3334,0,0,0,0,0,0,-3.2767,-3.2755,-3.2714,-3.284,-3.286,-3.2856,-3.2927,-3.2877,-3.2918,-3.2905,-3.2853,-3.2857,-3.2973,-3.2976,-3.2899,-3.3109,-3.3011,-3.3029,-3.3103,-3.3132,-3.3155,-3.3154,-3.2786,0,0,0,0,0,-3.2811,-3.2871,-3.2858,-3.2971,-3.2983,-3.2954,-3.2985,-3.2951,-3.297,-3.2979,-3.2977,-3.3,-3.3055,-3.3093,-3.3144,-3.3286,-3.3289,-3.3355,-3.3379,-3.3398,-3.3415,-3.3493,-3.3524,-3.32,-3.32,-3.3199,0,0,-3.2903,-3.2904,-3.2945,-3.2998,-3.3009,-3.3075,-3.2962,-3.3035,-3.3084,-3.299,-3.3091,-3.3091,-3.3112,-3.3238,-3.3293,-3.3245,-3.3505,-3.3415,-3.3431,-3.3438,-3.351,-3.3541,-3.3568,-3.3209,-3.3207,-3.3206,0,0,-3.3105,-3.311,-3.3206,-3.3219,-3.3237,-3.3216,-3.324,-3.3243,-3.3239,-3.3338,-3.327,-3.3327,-3.3424,-3.3443,-3.3465,-3.3674,-3.3621,-3.3692,-3.3816,-3.3893,-3.3919,-3.3941,-3.4018,-3.4046,-3.3708,-3.3708,-3.3709,0,-3.3218,-3.3312,-3.3262,-3.334,-3.3367,-3.3282,-3.338,-3.3396,-3.343,-3.3451,-3.3395,-3.3515,-3.3523,-3.3654,-3.3704,-3.3724,-3.3751,-3.3692,-3.3918,-3.394,-3.3961,-3.4034,-3.4063,-3.3717,-3.3716,-3.3715,-3.3714,0,-3.3451,-3.3518,-3.3593,-3.3627,-3.3661,-3.3749,-3.3714,-3.3755,-3.3718,-3.3704,-3.3808,-3.3815,-3.3866,-3.3894,-3.3859,-3.402,-3.3989,-3.3926,-3.3828,-3.4001,-3.407,-3.4097,-3.373,-3.3726,-3.3724,-3.3722,0,0,-3.3741,-3.3744,-3.3773,-3.3788,-3.3801,-3.3853,-3.3938,-3.3986,-3.4023,-3.4049,-3.4121,-3.4204,-3.4147,-3.4172,-3.4139,-3.4206,-3.4374,-3.4135,-3.4135,-3.4182,-3.4555,-3.4605,-3.4638,-3.4337,-3.4342,-3.4346,-3.4554,0,-3.3941,-3.4085,-3.4042,-3.4188,-3.425,-3.417,-3.4244,-3.4262,-3.4251,-3.4304,-3.4292,-3.4353,-3.4271,-3.4286,-3.4348,-3.434,-3.4449,-3.4324,-3.4407,-3.441,-3.4407,-3.4673,-3.4725,-3.4921,-3.458,-3.4585,-3.4588,0,-3.4195,-3.423,-3.4382,-3.4385,-3.441,-3.4477,-3.4519,-3.4569,-3.4588,-3.4575,-3.4604,-3.4556,-3.4642,-3.4541,-3.466,-3.4576,-3.4607,-3.4608,-3.4615,-3.4624,-3.4512,-3.4693,-3.4982,-3.5014,-3.4629,-3.4625,-3.4622,0,-3.4395,-3.448,-3.4582,-3.4597,-3.4603,-3.4652,-3.4658,-3.467,-3.4702,-3.4739,-3.476,-3.4806,-3.4833,-3.4871,-3.4839,-3.4767,-3.4964,-3.4859,-3.4959,-3.4961,-3.5007,-3.5006,-3.531,-3.5022,-3.5021,-3.5021,-3.502,0,-3.4626,-3.4723,-3.4672,-3.4735,-3.4842,-3.4792,-3.4899,-3.4895,-3.4908,-3.4971,-3.4904,-3.4965,-3.4916,-3.4973,-3.4948,-3.5053,-3.5064,-3.5059,-3.5052,-3.5067,-3.5069,-3.509,-3.5077,-3.5028,-3.5027,-3.5025,-3.5024,0,-3.4869,-3.4838,-3.4945,-3.4941,-3.4942,-3.5022,-3.5019,-3.5079,-3.5062,-3.5143,-3.5159,-3.5135,-3.5198,-3.5169,-3.5236,-3.5219,-3.5354,-3.5327,-3.5348,-3.5342,-3.5445,-3.5438,-3.5777,-3.582,-3.5501,-3.5504,-3.5506,0,-3.502,-3.5092,-3.5096,-3.5132,-3.5142,-3.5201,-3.5233,-3.5187,-3.5223,-3.525,-3.5307,-3.5365,-3.5409,-3.5515,-3.5505,-3.5556,-3.5532,-3.5647,-3.554,-3.5554,-3.5538,-3.5536,-3.5545,-3.5671,-3.5674,-3.5677,-3.568,0,-3.5292,-3.5274,-3.5321,-3.5365,-3.5404,-3.5436,-3.5463,-3.5497,-3.5451,-3.5496,-3.556,-3.5594,-3.5661,-3.5721,-3.5766,-3.5773,-3.5722,-3.5713,-3.574,-3.5758,-3.5769,-3.5768,-3.5411,-3.5707,-3.5704,-3.5702,-3.57,-3.5699,-3.5496,-3.5558,-3.557,-3.5626,-3.564,-3.5667,-3.5723,-3.5713,-3.5765,-3.5816,-3.5785,-3.5861,-3.5878,-3.5933,-3.5948,-3.6008,-3.5962,-3.6,-3.601,-3.6021,-3.6037,-3.5756,-3.6015,-3.6014,-3.6014,-3.6013,-3.6012,0,-3.5768,-3.5772,-3.5823,-3.5862,-3.5907,-3.5849,-3.5876,-3.5918,-3.5985,-3.6005,-3.6049,-3.6123,-3.618,-3.6174,-3.6227,-3.6276,-3.6254,-3.6292,-3.629,-3.6294,-3.6072,-3.6046,-3.631,-3.631,-3.631,-3.631,-3.631,-3.6309,-3.5915,-3.6017,-3.6,-3.6108,-3.6111,-3.6184,-3.6204,-3.6229,-3.6245,-3.633,-3.6377,-3.6371,-3.6381,-3.6434,-3.6485,-3.6482,-3.6506,-3.6555,-3.6544,-3.6338,-3.6309,-3.6281,-3.6256,-3.656,-3.656,-3.676,-3.6762,-3.6763]},{"header":{"parameterUnit":"m.s-1","parameterCategory":1,"la1":30.2991,"la2":30.254,"lo1":-89.0895,"lo2":-89.0444,"dy":0.0017,"dx":0.0017,"nx":28,"ny":28,"refTime":"2024-10-07T09:00:00:Z","depth":0,"parameterNumber":3,"parameterNumberName":"V-component_of_WINDS"},"data":[0,0,0,0,0,0,0,0,0,0,0,0,0,0,0,0,0,0,0,0,0,0,0,0,0,0,0,0,0,0,0,0,0,0,0,0,0,0,0,0,0,0,0,0,0,0,0,0,0,0,0,0,0,0,0,0,0,0,-4.4291,-4.4291,0,-4.4268,-4.4267,-4.4267,-4.4165,-4.4162,-4.416,-4.4158,-4.4135,-4.4137,-4.4138,0,0,0,0,0,0,0,0,0,0,0,0,0,-4.4249,-4.425,-4.4291,-4.4291,-4.429,-4.4268,-4.4267,-4.4267,-4.4165,-4.4162,-4.4159,-4.4156,-4.4135,-4.4137,-4.4138,0,0,0,0,0,0,0,0,0,0,0,0,0,-4.4251,-4.4251,-4.4291,-4.4237,-4.4232,-4.4268,-4.4267,-4.4267,-4.4166,-4.4162,-4.4158,-4.4155,-4.4134,-4.4136,-4.4139,-4.4226,0,0,-4.4146,-4.4147,0,0,0,0,0,0,0,0,-4.4251,-4.4252,-4.4245,-4.4241,-4.4235,-4.4215,-4.4244,-4.4253,-4.4166,-4.4191,-4.4157,-4.4153,-4.4165,-4.4164,-4.4168,-4.4225,-4.4224,-4.4146,-4.4148,-4.4149,-4.415,0,0,0,0,0,0,0,-4.4251,-4.4253,-4.4282,-4.4245,-4.4239,-4.4214,-4.421,-4.4245,-4.4198,-4.4188,-4.4181,-4.4179,-4.4161,-4.4166,-4.4167,-4.4223,-4.4146,-4.4149,-4.415,-4.4151,-4.435,-4.4353,0,0,0,0,0,0,-4.4258,-4.4253,-4.4282,-4.4281,-4.4234,-4.4218,-4.4213,-4.4225,-4.4198,-4.419,-4.4182,-4.4175,-4.4163,-4.4164,-4.4166,-4.4265,-4.4149,-4.4151,-4.4153,-4.4346,-4.4351,-4.4355,0,0,0,0,0,0,-4.4257,-4.4262,-4.4283,-4.4265,-4.4266,-4.4222,-4.4236,-4.4227,-4.4231,-4.4193,-4.4184,-4.4196,-4.4161,-4.4162,-4.4211,-4.4263,-4.4152,-4.4155,-4.4341,-4.4347,-4.4353,-4.4465,0,0,0,0,0,0,-4.4257,-4.4262,-4.4294,-4.4267,-4.4267,-4.433,-4.4239,-4.4229,-4.4235,-4.4225,-4.4203,-4.4196,-4.4158,-4.4208,-4.4214,-4.4264,-4.4156,-4.4337,-4.4344,-4.4351,-4.4457,-4.4474,-4.4489,0,0,0,0,0,-4.4256,-4.4327,-4.4296,-4.4301,-4.4307,-4.4333,-4.4333,-4.4287,-4.424,-4.4272,-4.4248,-4.4197,-4.4256,-4.4214,-4.4219,-4.4271,-4.4333,-4.4342,-4.435,-4.4449,-4.4471,-4.4489,0,0,0,0,0,0,-4.4363,-4.4323,-4.4288,-4.4353,-4.4347,-4.4315,-4.4355,-4.4311,-4.4319,-4.4309,-4.4252,-4.4248,-4.4306,-4.4293,-4.4247,-4.4354,-4.4286,-4.4296,-4.436,-4.438,-4.4395,-4.4397,-4.4159,0,0,0,0,0,-4.4394,-4.4418,-4.4382,-4.4443,-4.4441,-4.4399,-4.4409,-4.4374,-4.4365,-4.4362,-4.4341,-4.4336,-4.4353,-4.4366,-4.4379,-4.4455,-4.4448,-4.4493,-4.4509,-4.4523,-4.4532,-4.457,-4.459,-4.4383,-4.4383,-4.4383,0,0,-4.4459,-4.444,-4.4459,-4.4464,-4.4455,-4.4481,-4.4397,-4.4429,-4.4448,-4.4367,-4.4412,-4.4397,-4.4387,-4.4449,-4.4476,-4.4441,-4.4588,-4.4534,-4.4545,-4.4546,-4.4581,-4.4601,-4.4618,-4.4389,-4.4388,-4.4387,0,0,-4.459,-4.4579,-4.4628,-4.462,-4.4608,-4.4579,-4.4591,-4.4566,-4.4553,-4.4596,-4.4536,-4.4559,-4.459,-4.4585,-4.4586,-4.4716,-4.467,-4.4722,-4.4807,-4.4845,-4.4861,-4.4875,-4.4921,-4.4938,-4.4732,-4.4732,-4.4732,0,-4.4673,-4.4709,-4.4659,-4.4694,-4.4698,-4.4625,-4.4675,-4.467,-4.4664,-4.4668,-4.4629,-4.4666,-4.4655,-4.4715,-4.4746,-4.475,-4.4762,-4.4724,-4.4863,-4.4876,-4.4889,-4.4932,-4.495,-4.4739,-4.4738,-4.4737,-4.4737,0,-4.4811,-4.4838,-4.4879,-4.4873,-4.4882,-4.4924,-4.488,-4.4895,-4.486,-4.4835,-4.4881,-4.4864,-4.4873,-4.4885,-4.4851,-4.4941,-4.4919,-4.4873,-4.4803,-4.4916,-4.4956,-4.4972,-4.4748,-4.4745,-4.4744,-4.4742,0,0,-4.5009,-4.4975,-4.4991,-4.4987,-4.4968,-4.4988,-4.5027,-4.5035,-4.5049,-4.5047,-4.5078,-4.5106,-4.5063,-4.5065,-4.503,-4.5063,-4.5167,-4.5012,-4.5011,-4.5041,-4.5264,-4.5299,-4.5319,-4.5136,-4.5139,-4.5141,-4.5265,0,-4.5134,-4.5198,-4.5154,-4.5225,-4.5249,-4.5181,-4.5215,-4.5207,-4.5186,-4.5203,-4.5179,-4.52,-4.5141,-4.5141,-4.5172,-4.5148,-4.5211,-4.5138,-4.5165,-4.5166,-4.5169,-4.534,-4.5377,-4.5495,-4.528,-4.5283,-4.5285,0,-4.5289,-4.5292,-4.5367,-4.5342,-4.535,-4.5382,-4.5385,-4.5403,-4.5393,-4.5375,-4.5377,-4.5333,-4.537,-4.5303,-4.5353,-4.5305,-4.5313,-4.5303,-4.5307,-4.5307,-4.5232,-4.5345,-4.5531,-4.5549,-4.5309,-4.5307,-4.5305,0,-4.5425,-4.5449,-4.5496,-4.5495,-4.5468,-4.5492,-4.5482,-4.5468,-4.5476,-4.5479,-4.5484,-4.5492,-4.5497,-4.5505,-4.5465,-4.5419,-4.552,-4.5449,-4.5507,-4.5508,-4.5531,-4.553,-4.5721,-4.5537,-4.5537,-4.5537,-4.5536,0,-4.5569,-4.5617,-4.5557,-4.5586,-4.5638,-4.5586,-4.5639,-4.5622,-4.561,-4.5635,-4.5577,-4.5602,-4.5547,-4.5567,-4.5536,-4.5582,-4.5585,-4.5571,-4.5562,-4.5576,-4.5578,-4.5581,-4.5571,-4.5541,-4.554,-4.5539,-4.5538,0,-4.5731,-4.5692,-4.5739,-4.5709,-4.5703,-4.5742,-4.5717,-4.5743,-4.5717,-4.575,-4.5754,-4.5714,-4.5734,-4.5695,-4.5709,-4.5688,-4.5754,-4.5732,-4.5757,-4.5751,-4.581,-4.5805,-4.6009,-4.6033,-4.5835,-4.5837,-4.5839,0,-4.5825,-4.586,-4.5834,-4.5846,-4.5839,-4.5859,-4.5866,-4.5817,-4.5827,-4.5819,-4.5846,-4.586,-4.5869,-4.5904,-4.5877,-4.5888,-4.5866,-4.5937,-4.5867,-4.588,-4.5867,-4.5865,-4.5868,-4.5951,-4.5954,-4.5956,-4.5957,0,-4.5996,-4.5975,-4.5987,-4.5994,-4.6004,-4.6006,-4.6005,-4.6018,-4.5966,-4.5981,-4.5999,-4.6007,-4.6021,-4.6037,-4.6041,-4.6031,-4.5986,-4.5979,-4.5993,-4.6007,-4.602,-4.6014,-4.5796,-4.5975,-4.5973,-4.5972,-4.5971,-4.597,-4.6126,-4.6154,-4.6139,-4.6155,-4.6149,-4.6149,-4.6171,-4.6148,-4.6163,-4.617,-4.6141,-4.6167,-4.6156,-4.6157,-4.6152,-4.6172,-4.614,-4.616,-4.6165,-4.6171,-4.6181,-4.6018,-4.6173,-4.6172,-4.6172,-4.6171,-4.6171,0,-4.6293,-4.6281,-4.6296,-4.6295,-4.6308,-4.6263,-4.6259,-4.6273,-4.6296,-4.629,-4.6299,-4.6322,-4.6336,-4.631,-4.6321,-4.6342,-4.6321,-4.6346,-4.6344,-4.6343,-4.6208,-4.6195,-4.6363,-4.6363,-4.6363,-4.6363,-4.6362,-4.6362,-4.6382,-4.6427,-4.6404,-4.6445,-4.6432,-4.6456,-4.6458,-4.6458,-4.6452,-4.6479,-4.6491,-4.6473,-4.6459,-4.6468,-4.648,-4.6472,-4.6478,-4.6511,-4.6496,-4.6371,-4.6352,-4.6334,-4.6321,-4.6513,-4.6513,-4.6628,-4.6629,-4.663]}]]